OPS 4682 DEB, 38412

Orbit data source: Space-Track

OPS 4682 DEB, 38412 is space debris in LEO originally from a launch on Sat, 03 Apr 1965 UTC launched from the Air Force Western Test Range (AFWTR). Debris objects in space refer to the collection of defunct objects orbiting the Earth. Examples of debris include non-operational satellites, rocket bodies, and fragments generated from explosions, collisions, or faulty payload assembly.

Loading next visibility...
Identifier
38412, 1965-027DR
Orbit
LEO
Country
Flag of USUS
Related business
Manufacturer
Unknown
Mission
Spacecraft
Bus & Motor
Unknown
Mass
Unknown
Launch date (UTC)
1965-04-03 (61 years ago)
Launch vehicle
Unknown
Launch site
Air Force Western Test Range (AFWTR)
Object type
Payload
Rocket body
Debris
Shape & HBR
Unknown shape, 0.1 m
Radar Cross Section
Small (<0.1 m²)

Expand to show TLE details & history
Last TLE update: 6 hours ago

TLE from 6 hours ago
0 OPS 4682 DEB
1 38412U 65027DR  25294.59306715  .00000082  00000-0  26456-3 0  9992
2 38412  90.2377 358.0269 0034822 158.5809 201.6777 12.94775946599788
Epoch: 2025-10-21T14:14Z
TLE epoch observation values (Epoch: 2025-10-21T14:14:01.001Z)
Latitude
0.00003°
Longitude
114.24393°
Altitude
1,310.307 km
Speed
7.19 km/s
True Right ascension
23h 52m 06s
True Declination
0° 00' 00"
Sunlit
Object was in full shadow at epoch
Visualization orbit readout
Latitude
Unknown
Longitude
Unknown
Altitude
Unknown
Speed
Unknown
Apparent Right ascension
Unknown
Apparent Declination
Unknown
Sunlit
N/A
Visualization observer readout
Local Sidereal Time
15:30:48
Azimuth
Unknown
Elevation
Unknown
Doppler factor
Unknown
Orbital elements
Apogee altitude
1,306.425 km
Perigee altitude
1,253.092 km
Semi-major axis
7,657.895 km
Eccentricity
0.00348
Inclination
90.2377°
RAAN
358.0269°
Arg. of periapsis
158.5809°
True anomaly
201.5309°
Mean anomaly
201.6777°
Eccentric anomaly
201.60424°
Mean motion
3.23876 °/min
Orbital period
111.15 mins
BSTAR
0.00026456
Loading maneuver chart data...
Computing Atmospheric mass density...
Loading historical data...
Loading historical data...
Loading historical data...
Loading historical data...
Loading historical data...
Loading historical data...
Loading historical data...

Documentation

Showing up to 5 results
|